Time,TemperatureF,DewpointF,PressureIn,WindDirection,WindDirectionDegrees,WindSpeedMPH,WindSpeedGustMPH,Humidity,HourlyPrecipIn,Conditions,Clouds,dailyrainin,SoftwareType,DateUTC
2013-06-13 00:00:00,60.1,43.4,29.71,WSW,241,0.0,2.7,54,0.00,,BKN070,0.00,VWS V14.00,2013-06-13 04:00:00,
2013-06-13 00:02:00,59.9,43.2,29.71,WSW,240,0.0,0.0,54,0.00,,CLR,0.00,VWS V14.00,2013-06-13 04:02:00,
2013-06-13 00:04:00,59.7,43.1,29.71,WNW,297,0.0,0.0,54,0.00,,CLR,0.00,VWS V14.00,2013-06-13 04:04:00,
2013-06-13 00:07:00,59.5,43.4,29.74,WNW,297,0.0,0.0,55,0.00,,CLR,0.00,VWS V14.00,2013-06-13 04:07:00,
2013-06-13 00:09:00,59.4,43.2,29.74,WNW,297,0.0,0.0,55,0.00,,CLR,0.00,VWS V14.00,2013-06-13 04:09:00,
2013-06-13 00:16:00,59.4,43.7,29.74,WNW,297,0.0,0.0,56,0.00,,CLR,0.00,VWS V14.00,2013-06-13 04:16:00,
2013-06-13 00:23:00,59.2,43.5,29.71,West,271,0.0,0.0,56,0.00,,CLR,0.00,VWS V14.00,2013-06-13 04:23:00,
2013-06-13 00:30:00,59.0,43.8,29.71,WSW,249,0.0,0.0,57,0.00,,CLR,0.00,VWS V14.00,2013-06-13 04:30:00,
2013-06-13 00:32:00,59.0,43.8,29.71,SSW,213,0.0,0.0,57,0.00,,CLR,0.00,VWS V14.00,2013-06-13 04:32:00,
2013-06-13 00:39:00,58.6,43.9,29.71,WSW,242,0.0,0.0,58,0.00,,CLR,0.00,VWS V14.00,2013-06-13 04:39:00,
2013-06-13 00:46:00,58.5,44.2,29.71,WSW,243,0.0,0.0,59,0.00,,CLR,0.00,VWS V14.00,2013-06-13 04:46:00,
2013-06-13 00:53:00,58.5,44.2,29.71,West,262,0.0,4.0,59,0.00,,CLR,0.00,VWS V14.00,2013-06-13 04:53:00,
2013-06-13 01:00:00,58.3,44.0,29.71,North,11,0.0,4.0,59,0.00,,CLR,0.00,VWS V14.00,2013-06-13 05:00:00,
2013-06-13 01:05:00,58.1,43.9,29.71,West,267,0.0,0.0,59,0.00,,CLR,0.00,VWS V14.00,2013-06-13 05:05:00,
2013-06-13 01:12:00,57.9,43.7,29.71,WNW,285,0.0,0.0,59,0.00,,CLR,0.00,VWS V14.00,2013-06-13 05:12:00,
2013-06-13 01:19:00,57.6,43.4,29.71,WNW,285,0.0,0.0,59,0.00,,CLR,0.00,VWS V14.00,2013-06-13 05:19:00,
2013-06-13 01:26:00,57.2,43.5,29.71,WNW,290,0.0,0.0,60,0.00,,CLR,0.00,VWS V14.00,2013-06-13 05:26:00,
2013-06-13 01:33:00,57.2,43.9,29.71,WNW,287,0.0,0.0,61,0.00,,CLR,0.00,VWS V14.00,2013-06-13 05:33:00,
2013-06-13 01:40:00,57.0,44.6,29.71,SW,233,0.0,0.0,63,0.00,,CLR,0.00,VWS V14.00,2013-06-13 05:40:00,
2013-06-13 01:45:00,56.8,44.4,29.71,SW,233,0.0,0.0,63,0.00,,CLR,0.00,VWS V14.00,2013-06-13 05:45:00,
2013-06-13 01:52:00,56.7,44.2,29.71,SW,215,0.0,0.0,63,0.00,,CLR,0.00,VWS V14.00,2013-06-13 05:52:00,
2013-06-13 01:59:00,56.3,43.9,29.71,SSW,213,0.0,0.0,63,0.00,,CLR,0.00,VWS V14.00,2013-06-13 05:59:00,
2013-06-13 02:06:00,55.9,44.0,29.71,SSW,213,0.0,0.0,64,0.00,,CLR,0.00,VWS V14.00,2013-06-13 06:06:00,
2013-06-13 02:13:00,55.9,44.8,29.71,SSW,213,0.0,0.0,66,0.00,,CLR,0.00,VWS V14.00,2013-06-13 06:13:00,
2013-06-13 02:20:00,55.8,44.6,29.71,SSW,213,0.0,0.0,66,0.00,,CLR,0.00,VWS V14.00,2013-06-13 06:20:00,
2013-06-13 02:27:00,55.9,45.5,29.71,West,268,0.0,0.0,68,0.00,,CLR,0.00,VWS V14.00,2013-06-13 06:27:00,
2013-06-13 02:34:00,55.9,45.5,29.71,SSW,200,0.0,0.0,68,0.00,,CLR,0.00,VWS V14.00,2013-06-13 06:34:00,
2013-06-13 02:40:00,56.1,45.7,29.71,SW,220,0.0,2.7,68,0.00,,CLR,0.00,VWS V14.00,2013-06-13 06:40:00,
2013-06-13 02:46:00,56.1,46.1,29.71,SW,232,0.0,3.6,69,0.00,,CLR,0.00,VWS V14.00,2013-06-13 06:46:00,
2013-06-13 02:53:00,55.9,45.9,29.71,SW,227,0.0,0.0,69,0.00,,CLR,0.00,VWS V14.00,2013-06-13 06:53:00,
2013-06-13 03:00:00,55.9,45.9,29.71,WSW,255,0.0,0.0,69,0.00,,CLR,0.00,VWS V14.00,2013-06-13 07:00:00,
2013-06-13 03:07:00,55.8,45.8,29.71,SW,219,0.0,0.0,69,0.00,,CLR,0.00,VWS V14.00,2013-06-13 07:07:00,
2013-06-13 03:14:00,55.8,46.1,29.71,SW,219,0.0,0.0,70,0.00,,CLR,0.00,VWS V14.00,2013-06-13 07:14:00,
2013-06-13 03:20:00,55.6,46.0,29.71,SW,219,0.0,0.0,70,0.00,,CLR,0.00,VWS V14.00,2013-06-13 07:20:00,
2013-06-13 03:26:00,55.2,45.6,29.71,SW,219,0.0,0.0,70,0.00,,CLR,0.00,VWS V14.00,2013-06-13 07:26:00,
2013-06-13 03:33:00,55.2,46.0,29.71,SW,219,0.0,0.0,71,0.00,,CLR,0.00,VWS V14.00,2013-06-13 07:33:00,
2013-06-13 03:40:00,55.2,46.0,29.71,SW,219,0.0,0.0,71,0.00,,CLR,0.00,VWS V14.00,2013-06-13 07:40:00,
2013-06-13 03:47:00,55.0,46.2,29.71,SW,219,0.0,0.0,72,0.00,,CLR,0.00,VWS V14.00,2013-06-13 07:47:00,
2013-06-13 03:54:00,55.0,46.5,29.71,SW,219,0.0,0.0,73,0.00,,CLR,0.00,VWS V14.00,2013-06-13 07:54:00,
2013-06-13 04:00:00,54.9,46.7,29.71,SW,219,0.0,0.0,74,0.00,,CLR,0.00,VWS V14.00,2013-06-13 08:00:00,
2013-06-13 04:05:00,54.7,46.6,29.71,SW,219,0.0,0.0,74,0.00,,CLR,0.00,VWS V14.00,2013-06-13 08:05:00,
2013-06-13 04:12:00,54.3,46.2,29.71,SW,219,0.0,0.0,74,0.00,,CLR,0.00,VWS V14.00,2013-06-13 08:12:00,
2013-06-13 04:19:00,53.8,46.0,29.71,SW,219,0.0,0.0,75,0.00,,CLR,0.00,VWS V14.00,2013-06-13 08:19:00,
2013-06-13 04:26:00,53.4,45.7,29.71,SW,219,0.0,0.0,75,0.00,,CLR,0.00,VWS V14.00,2013-06-13 08:26:00,
2013-06-13 04:33:00,53.1,45.7,29.71,SW,219,0.0,0.0,76,0.00,,CLR,0.00,VWS V14.00,2013-06-13 08:33:00,
2013-06-13 04:40:00,52.9,45.5,29.74,SW,219,0.0,0.0,76,0.00,,CLR,0.00,VWS V14.00,2013-06-13 08:40:00,
2013-06-13 04:45:00,52.9,45.9,29.74,SW,219,0.0,0.0,77,0.00,,CLR,0.00,VWS V14.00,2013-06-13 08:45:00,
2013-06-13 04:52:00,53.1,46.7,29.74,SW,219,0.0,0.0,79,0.00,,CLR,0.00,VWS V14.00,2013-06-13 08:52:00,
2013-06-13 04:59:00,53.4,47.7,29.74,SW,219,0.0,0.0,81,0.00,,CLR,0.00,VWS V14.00,2013-06-13 08:59:00,
2013-06-13 05:06:00,53.6,48.9,29.74,SW,219,0.0,0.0,84,0.00,,CLR,0.00,VWS V14.00,2013-06-13 09:06:00,
2013-06-13 05:13:00,53.6,48.9,29.74,SW,219,0.0,0.0,84,0.00,,CLR,0.00,VWS V14.00,2013-06-13 09:13:00,
2013-06-13 05:20:00,53.6,49.2,29.74,SW,219,0.0,0.0,85,0.00,,CLR,0.00,VWS V14.00,2013-06-13 09:20:00,
2013-06-13 05:25:00,53.6,49.2,29.74,SW,219,0.0,0.0,85,0.00,,CLR,0.00,VWS V14.00,2013-06-13 09:25:00,
2013-06-13 05:32:00,53.6,49.5,29.74,SW,219,0.0,0.0,86,0.00,,CLR,0.00,VWS V14.00,2013-06-13 09:32:00,
2013-06-13 05:39:00,53.8,50.0,29.74,SW,219,0.0,0.0,87,0.00,,CLR,0.00,VWS V14.00,2013-06-13 09:39:00,
2013-06-13 05:46:00,54.3,50.8,29.74,SW,219,0.0,0.0,88,0.00,,CLR,0.00,VWS V14.00,2013-06-13 09:46:00,
2013-06-13 05:53:00,54.5,51.3,29.74,SW,219,0.0,0.0,89,0.00,,CLR,0.00,VWS V14.00,2013-06-13 09:53:00,
2013-06-13 06:00:00,54.5,51.3,29.74,SW,219,0.0,0.0,89,0.00,,CLR,0.00,VWS V14.00,2013-06-13 10:00:00,
2013-06-13 06:07:00,54.7,51.5,29.74,SW,219,0.0,0.0,89,0.00,,CLR,0.00,VWS V14.00,2013-06-13 10:07:00,
2013-06-13 06:14:00,54.9,51.7,29.74,SW,219,0.0,0.0,89,0.00,,CLR,0.00,VWS V14.00,2013-06-13 10:14:00,
2013-06-13 06:20:00,55.0,51.9,29.74,SW,219,0.0,0.0,89,0.00,,CLR,0.00,VWS V14.00,2013-06-13 10:20:00,
2013-06-13 06:26:00,55.4,52.2,29.74,SW,219,0.0,0.0,89,0.00,,CLR,0.00,VWS V14.00,2013-06-13 10:26:00,
2013-06-13 06:33:00,55.8,52.3,29.74,ENE,64,0.0,3.1,88,0.00,,CLR,0.00,VWS V14.00,2013-06-13 10:33:00,
2013-06-13 06:40:00,55.9,52.4,29.74,ENE,64,0.0,3.1,88,0.00,,CLR,0.00,VWS V14.00,2013-06-13 10:40:00,
2013-06-13 06:47:00,56.3,52.5,29.74,ENE,64,0.0,0.0,87,0.00,,CLR,0.00,VWS V14.00,2013-06-13 10:47:00,
2013-06-13 06:54:00,56.7,52.5,29.74,ENE,64,0.0,0.0,86,0.00,,CLR,0.00,VWS V14.00,2013-06-13 10:54:00,
2013-06-13 07:00:00,56.8,52.1,29.74,ENE,64,0.0,0.0,84,0.00,,CLR,0.00,VWS V14.00,2013-06-13 11:00:00,
2013-06-13 07:06:00,57.2,52.1,29.74,ENE,64,0.0,0.0,83,0.00,,CLR,0.00,VWS V14.00,2013-06-13 11:06:00,
2013-06-13 07:13:00,57.6,51.8,29.74,NE,37,0.0,0.0,81,0.00,,CLR,0.00,VWS V14.00,2013-06-13 11:13:00,
2013-06-13 07:20:00,58.1,51.6,29.74,NE,37,0.0,0.0,79,0.00,,CLR,0.00,VWS V14.00,2013-06-13 11:20:00,
2013-06-13 07:27:00,58.8,51.6,29.74,SW,218,0.0,6.3,77,0.00,,CLR,0.00,VWS V14.00,2013-06-13 11:27:00,
2013-06-13 07:34:00,59.4,51.1,29.74,WSW,251,0.0,3.1,74,0.00,,CLR,0.00,VWS V14.00,2013-06-13 11:34:00,
2013-06-13 07:40:00,59.7,50.3,29.74,West,268,0.0,3.1,71,0.00,,CLR,0.00,VWS V14.00,2013-06-13 11:40:00,
2013-06-13 07:45:00,59.9,49.7,29.74,West,268,0.0,0.0,69,0.00,,CLR,0.00,VWS V14.00,2013-06-13 11:45:00,
2013-06-13 07:52:00,60.3,49.3,29.74,ENE,74,0.0,0.0,67,0.00,,CLR,0.00,VWS V14.00,2013-06-13 11:52:00,
2013-06-13 07:59:00,60.8,48.1,29.74,ENE,74,0.0,0.0,63,0.00,,CLR,0.00,VWS V14.00,2013-06-13 11:59:00,
2013-06-13 08:06:00,61.2,47.6,29.74,NNE,17,0.0,0.0,61,0.00,,CLR,0.00,VWS V14.00,2013-06-13 12:06:00,
2013-06-13 08:13:00,61.5,47.5,29.74,NNE,21,2.7,2.7,60,0.00,,CLR,0.00,VWS V14.00,2013-06-13 12:13:00,
2013-06-13 08:20:00,61.9,46.5,29.74,North,6,0.0,2.7,57,0.00,,CLR,0.00,VWS V14.00,2013-06-13 12:20:00,
2013-06-13 08:25:00,62.1,46.2,29.74,NNW,341,3.6,3.6,56,0.00,,CLR,0.00,VWS V14.00,2013-06-13 12:25:00,
2013-06-13 08:32:00,63.1,45.8,29.74,North,7,3.6,3.6,53,0.00,,CLR,0.00,VWS V14.00,2013-06-13 12:32:00,
2013-06-13 08:39:00,66.9,46.0,29.74,North,357,0.0,4.9,47,0.00,,CLR,0.00,VWS V14.00,2013-06-13 12:39:00,
2013-06-13 08:46:00,70.0,47.7,29.74,North,350,0.0,2.7,45,0.00,,CLR,0.00,VWS V14.00,2013-06-13 12:46:00,
2013-06-13 08:53:00,71.8,44.1,29.74,NNE,21,2.2,4.5,37,0.00,,CLR,0.00,VWS V14.00,2013-06-13 12:53:00,
2013-06-13 09:00:00,71.2,44.4,29.74,North,11,4.0,5.4,38,0.00,,CLR,0.00,VWS V14.00,2013-06-13 13:00:00,
2013-06-13 09:05:00,69.3,43.3,29.74,NW,316,3.1,5.4,39,0.00,,CLR,0.00,VWS V14.00,2013-06-13 13:05:00,
2013-06-13 09:12:00,67.6,42.5,29.74,North,0,0.0,3.1,40,0.00,,CLR,0.00,VWS V14.00,2013-06-13 13:12:00,
2013-06-13 09:19:00,67.5,43.0,29.74,North,353,3.6,4.9,41,0.00,,CLR,0.00,VWS V14.00,2013-06-13 13:19:00,
2013-06-13 09:26:00,67.3,42.8,29.74,North,0,2.7,5.4,41,0.00,,CLR,0.00,VWS V14.00,2013-06-13 13:26:00,
2013-06-13 09:33:00,67.1,42.6,29.74,NNW,337,0.0,4.0,41,0.00,,CLR,0.00,VWS V14.00,2013-06-13 13:33:00,
2013-06-13 09:40:00,67.1,43.3,29.74,North,353,0.0,4.0,42,0.00,,CLR,0.00,VWS V14.00,2013-06-13 13:40:00,
2013-06-13 09:47:00,67.1,43.9,29.74,North,357,0.0,3.6,43,0.00,,CLR,0.00,VWS V14.00,2013-06-13 13:47:00,
2013-06-13 09:54:00,66.9,44.3,29.71,SSW,210,0.0,3.6,44,0.00,,CLR,0.00,VWS V14.00,2013-06-13 13:54:00,
2013-06-13 10:00:00,66.4,45.0,29.71,SW,214,3.1,4.5,46,0.00,,CLR,0.00,VWS V14.00,2013-06-13 14:00:00,
2013-06-13 10:06:00,66.0,44.1,29.74,West,269,2.7,3.6,45,0.00,,CLR,0.00,VWS V14.00,2013-06-13 14:06:00,
2013-06-13 10:13:00,66.0,44.1,29.74,South,172,0.0,3.1,45,0.00,,CLR,0.00,VWS V14.00,2013-06-13 14:13:00,
2013-06-13 10:20:00,66.2,43.7,29.74,NNW,329,2.7,3.6,44,0.00,,CLR,0.00,VWS V14.00,2013-06-13 14:20:00,
2013-06-13 10:27:00,66.6,44.6,29.74,West,272,3.6,3.6,45,0.00,,CLR,0.00,VWS V14.00,2013-06-13 14:27:00,
2013-06-13 10:34:00,66.9,43.7,29.74,WSW,240,3.6,4.0,43,0.00,,CLR,0.00,VWS V14.00,2013-06-13 14:34:00,
2013-06-13 10:40:00,67.1,42.6,29.74,ESE,122,0.0,4.9,41,0.00,,CLR,0.00,VWS V14.00,2013-06-13 14:40:00,
2013-06-13 10:46:00,67.3,43.4,29.74,South,173,0.0,2.7,42,0.00,,CLR,0.00,VWS V14.00,2013-06-13 14:46:00,
2013-06-13 10:53:00,67.5,43.6,29.74,NNW,327,3.1,3.1,42,0.00,,CLR,0.00,VWS V14.00,2013-06-13 14:53:00,
2013-06-13 11:00:00,67.8,44.5,29.74,SW,232,5.4,5.4,43,0.00,,CLR,0.00,VWS V14.00,2013-06-13 15:00:00,
2013-06-13 11:07:00,67.8,43.3,29.74,SW,227,0.0,5.4,41,0.00,,CLR,0.00,VWS V14.00,2013-06-13 15:07:00,
2013-06-13 11:14:00,67.6,43.1,29.74,SE,128,0.0,3.1,41,0.00,,CLR,0.00,VWS V14.00,2013-06-13 15:14:00,
2013-06-13 11:20:00,67.6,42.5,29.74,SE,142,0.0,5.8,40,0.00,,CLR,0.00,VWS V14.00,2013-06-13 15:20:00,
2013-06-13 11:25:00,67.6,42.5,29.74,North,6,3.1,4.0,40,0.00,,CLR,0.00,VWS V14.00,2013-06-13 15:25:00,
2013-06-13 11:32:00,67.8,42.6,29.74,NE,47,0.0,5.8,40,0.00,,CLR,0.00,VWS V14.00,2013-06-13 15:32:00,
2013-06-13 11:39:00,67.8,42.6,29.74,South,183,3.6,5.8,40,0.00,,CLR,0.00,VWS V14.00,2013-06-13 15:39:00,
2013-06-13 11:46:00,67.3,42.2,29.74,WSW,239,3.6,5.8,40,0.00,,CLR,0.00,VWS V14.00,2013-06-13 15:46:00,
2013-06-13 11:53:00,66.9,42.5,29.74,South,191,4.9,7.6,41,0.00,,CLR,0.00,VWS V14.00,2013-06-13 15:53:00,
2013-06-13 12:00:00,66.6,42.2,29.74,SW,220,5.4,7.6,41,0.00,,CLR,0.00,VWS V14.00,2013-06-13 16:00:00,
2013-06-13 12:05:00,66.2,42.5,29.74,South,190,0.0,6.3,42,0.00,,BKN110,0.00,VWS V14.00,2013-06-13 16:05:00,
2013-06-13 12:12:00,66.4,43.2,29.74,South,172,3.6,5.8,43,0.00,,BKN110,0.00,VWS V14.00,2013-06-13 16:12:00,
2013-06-13 12:19:00,66.4,43.2,29.74,SW,214,4.0,5.8,43,0.00,,BKN110,0.00,VWS V14.00,2013-06-13 16:19:00,
2013-06-13 12:26:00,66.2,43.1,29.74,SW,221,5.4,6.7,43,0.00,,BKN110,0.00,VWS V14.00,2013-06-13 16:26:00,
2013-06-13 12:33:00,65.8,42.7,29.74,South,173,3.6,8.1,43,0.00,,BKN110,0.00,VWS V14.00,2013-06-13 16:33:00,
2013-06-13 12:40:00,65.5,43.0,29.74,SW,234,7.2,8.1,44,0.00,,BKN110,0.00,VWS V14.00,2013-06-13 16:40:00,
2013-06-13 12:45:00,65.1,42.7,29.74,SSW,205,0.0,8.7,44,0.00,,BKN110,0.00,VWS V14.00,2013-06-13 16:45:00,
2013-06-13 12:52:00,64.8,43.0,29.71,WSW,237,4.0,8.3,45,0.00,,BKN110,0.00,VWS V14.00,2013-06-13 16:52:00,
2013-06-13 12:59:00,64.6,43.4,29.71,SSW,198,7.6,8.3,46,0.00,,BKN110,0.00,VWS V14.00,2013-06-13 16:59:00,
2013-06-13 13:06:00,64.2,43.6,29.71,SW,225,4.9,8.7,47,0.00,,-RA,0.00,VWS V14.00,2013-06-13 17:06:00,
2013-06-13 13:13:00,63.9,44.3,29.71,SW,219,5.8,8.3,49,0.00,,-RA,0.00,VWS V14.00,2013-06-13 17:13:00,
2013-06-13 13:20:00,63.5,44.0,29.71,SW,222,5.8,10.5,49,0.00,,-RA,0.00,VWS V14.00,2013-06-13 17:20:00,
2013-06-13 13:27:00,63.1,44.2,29.71,SW,217,4.0,10.1,50,0.00,,-RA,0.00,VWS V14.00,2013-06-13 17:27:00,
2013-06-13 13:34:00,62.6,44.2,29.71,SSW,206,3.6,6.3,51,0.00,,-RA,0.00,VWS V14.00,2013-06-13 17:34:00,
2013-06-13 13:40:00,62.6,44.8,29.71,SSW,211,0.0,6.3,52,0.00,,-RA,0.00,VWS V14.00,2013-06-13 17:40:00,
2013-06-13 13:46:00,62.6,45.2,29.71,SSW,212,4.0,5.8,53,0.00,,-RA,0.00,VWS V14.00,2013-06-13 17:46:00,
2013-06-13 13:53:00,62.4,45.6,29.71,SW,223,0.0,5.4,54,0.00,,-RA,0.00,VWS V14.00,2013-06-13 17:53:00,
2013-06-13 14:00:00,62.1,45.2,29.71,SSW,209,3.1,5.8,54,0.00,,-RA,0.00,VWS V14.00,2013-06-13 18:00:00,
2013-06-13 14:07:00,61.7,45.9,29.71,WSW,244,6.3,6.3,56,0.04,,-RA,0.04,VWS V14.00,2013-06-13 18:07:00,
2013-06-13 14:14:00,61.5,46.6,29.71,WSW,242,3.6,5.4,58,0.04,,-RA,0.04,VWS V14.00,2013-06-13 18:14:00,
2013-06-13 14:20:00,61.3,46.9,29.71,SW,215,2.7,5.4,59,0.04,,-RA,0.04,VWS V14.00,2013-06-13 18:20:00,
2013-06-13 14:26:00,61.3,47.8,29.68,SE,125,0.0,4.9,61,0.04,,-RA,0.04,VWS V14.00,2013-06-13 18:26:00,
2013-06-13 14:33:00,61.2,48.5,29.68,SW,215,2.7,5.4,63,0.04,,-RA,0.04,VWS V14.00,2013-06-13 18:33:00,
2013-06-13 14:40:00,61.0,48.7,29.68,SW,229,2.7,6.3,64,0.04,,-RA,0.04,VWS V14.00,2013-06-13 18:40:00,
2013-06-13 14:47:00,60.8,49.4,29.68,WSW,250,2.2,8.3,66,0.04,,-RA,0.04,VWS V14.00,2013-06-13 18:47:00,
2013-06-13 14:54:00,60.6,49.6,29.68,SSW,208,0.0,5.4,67,0.04,,-RA,0.04,VWS V14.00,2013-06-13 18:54:00,
2013-06-13 15:00:00,60.6,50.0,29.68,SW,228,4.0,5.8,68,0.04,,-RA,0.04,VWS V14.00,2013-06-13 19:00:00,
2013-06-13 15:05:00,60.6,50.0,29.68,SSW,210,3.6,5.8,68,0.04,,-RA,0.04,VWS V14.00,2013-06-13 19:05:00,
2013-06-13 15:12:00,61.0,50.8,29.68,SSW,195,3.6,5.8,69,0.08,,-RA,0.12,VWS V14.00,2013-06-13 19:12:00,
2013-06-13 15:20:00,61.2,50.9,29.68,SSW,209,3.6,6.3,69,0.08,,-RA,0.12,VWS V14.00,2013-06-13 19:20:00,
2013-06-13 15:27:00,61.2,51.3,29.71,SW,219,5.8,8.3,70,0.08,,-RA,0.12,VWS V14.00,2013-06-13 19:27:00,
2013-06-13 15:34:00,60.8,51.0,29.71,SW,217,3.6,6.3,70,0.08,,-RA,0.12,VWS V14.00,2013-06-13 19:34:00,
2013-06-13 15:40:00,60.4,51.0,29.71,SSW,210,3.1,8.1,71,0.08,,-RA,0.12,VWS V14.00,2013-06-13 19:40:00,
2013-06-13 15:45:00,60.3,51.2,29.71,SSW,198,5.8,8.3,72,0.08,,-RA,0.12,VWS V14.00,2013-06-13 19:45:00,
2013-06-13 15:52:00,60.1,51.0,29.71,SSW,193,5.4,5.4,72,0.08,,-RA,0.12,VWS V14.00,2013-06-13 19:52:00,
2013-06-13 15:59:00,59.9,51.6,29.71,SW,225,6.3,6.3,74,0.12,,-RA,0.16,VWS V14.00,2013-06-13 19:59:00,
2013-06-13 16:06:00,59.7,51.4,29.71,SSE,154,3.1,7.6,74,0.12,,RA,0.16,VWS V14.00,2013-06-13 20:06:00,
2013-06-13 16:13:00,59.5,51.6,29.71,SW,230,4.0,5.8,75,0.12,,RA,0.16,VWS V14.00,2013-06-13 20:13:00,
2013-06-13 16:20:00,59.4,51.8,29.71,SSE,162,2.7,8.3,76,0.12,,RA,0.16,VWS V14.00,2013-06-13 20:20:00,
2013-06-13 16:25:00,59.4,52.2,29.71,SSW,196,5.8,8.3,77,0.08,,RA,0.20,VWS V14.00,2013-06-13 20:25:00,
2013-06-13 16:32:00,59.2,52.0,29.71,SSW,205,7.6,7.6,77,0.08,,RA,0.20,VWS V14.00,2013-06-13 20:32:00,
2013-06-13 16:39:00,59.2,52.3,29.71,WSW,241,5.4,7.6,78,0.08,,-RA,0.20,VWS V14.00,2013-06-13 20:39:00,
2013-06-13 16:46:00,59.2,52.7,29.71,SSE,165,0.0,5.8,79,0.08,,-RA,0.20,VWS V14.00,2013-06-13 20:46:00,
2013-06-13 16:53:00,59.2,53.4,29.71,South,169,4.0,8.7,81,0.08,,-RA,0.20,VWS V14.00,2013-06-13 20:53:00,
2013-06-13 17:00:00,59.2,53.4,29.71,SW,229,2.7,8.7,81,0.12,,-RA,0.24,VWS V14.00,2013-06-13 21:00:00,
2013-06-13 17:05:00,59.2,53.4,29.71,South,171,4.9,6.3,81,0.08,,-RA,0.24,VWS V14.00,2013-06-13 21:05:00,
2013-06-13 17:12:00,58.8,53.0,29.71,SW,219,6.3,6.3,81,0.08,,-RA,0.24,VWS V14.00,2013-06-13 21:12:00,
2013-06-13 17:19:00,58.8,53.3,29.71,SW,220,0.0,6.3,82,0.08,,-RA,0.24,VWS V14.00,2013-06-13 21:19:00,
2013-06-13 17:26:00,58.8,53.3,29.68,SW,227,0.0,3.1,82,0.08,,-RA,0.24,VWS V14.00,2013-06-13 21:26:00,
2013-06-13 17:33:00,58.8,53.0,29.68,SW,217,0.0,0.0,81,0.04,,-RA,0.24,VWS V14.00,2013-06-13 21:33:00,
2013-06-13 17:40:00,58.6,52.8,29.68,SW,215,3.1,4.0,81,0.04,,-RA,0.24,VWS V14.00,2013-06-13 21:40:00,
2013-06-13 17:45:00,58.5,52.3,29.68,SW,219,0.0,5.4,80,0.04,,-RA,0.24,VWS V14.00,2013-06-13 21:45:00,
2013-06-13 17:52:00,58.5,52.7,29.65,SW,222,2.7,3.1,81,0.04,,-RA,0.24,VWS V14.00,2013-06-13 21:52:00,
2013-06-13 17:59:00,58.5,52.7,29.65,SSW,203,3.1,4.0,81,0.04,,-RA,0.24,VWS V14.00,2013-06-13 21:59:00,
2013-06-13 18:06:00,58.3,52.2,29.65,SW,231,4.0,4.0,80,0.00,,OVC065,0.24,VWS V14.00,2013-06-13 22:06:00,
2013-06-13 18:13:00,58.1,52.0,29.65,WSW,239,0.0,0.0,80,0.00,,OVC065,0.24,VWS V14.00,2013-06-13 22:13:00,
2013-06-13 18:20:00,57.9,51.8,29.65,WSW,239,0.0,0.0,80,0.00,,OVC065,0.24,VWS V14.00,2013-06-13 22:20:00,
2013-06-13 18:27:00,57.7,51.6,29.65,WSW,239,0.0,0.0,80,0.00,,OVC065,0.24,VWS V14.00,2013-06-13 22:27:00,
2013-06-13 18:34:00,57.7,51.6,29.65,WSW,239,0.0,0.0,80,0.00,,OVC065,0.24,VWS V14.00,2013-06-13 22:34:00,
2013-06-13 18:40:00,57.6,51.5,29.68,WSW,239,0.0,0.0,80,0.00,,OVC065,0.24,VWS V14.00,2013-06-13 22:40:00,
2013-06-13 18:46:00,57.6,51.5,29.68,WSW,239,0.0,0.0,80,0.00,,OVC065,0.24,VWS V14.00,2013-06-13 22:46:00,
2013-06-13 18:53:00,57.6,51.5,29.68,WSW,239,0.0,0.0,80,0.00,,OVC065,0.24,VWS V14.00,2013-06-13 22:53:00,
2013-06-13 19:00:00,57.4,51.3,29.68,WSW,239,0.0,0.0,80,0.00,,OVC065,0.24,VWS V14.00,2013-06-13 23:00:00,
2013-06-13 19:07:00,57.2,51.1,29.68,WSW,239,0.0,0.0,80,0.00,,-RA,0.24,VWS V14.00,2013-06-13 23:07:00,
2013-06-13 19:14:00,57.2,51.1,29.68,WSW,239,0.0,0.0,80,0.00,,-RA,0.24,VWS V14.00,2013-06-13 23:14:00,
2013-06-13 19:20:00,57.0,51.3,29.68,WSW,239,0.0,0.0,81,0.00,,-RA,0.24,VWS V14.00,2013-06-13 23:20:00,
2013-06-13 19:26:00,57.0,51.3,29.68,WSW,239,0.0,0.0,81,0.00,,-RA,0.24,VWS V14.00,2013-06-13 23:26:00,
2013-06-13 19:33:00,56.8,51.1,29.68,WSW,239,0.0,0.0,81,0.00,,-RA,0.24,VWS V14.00,2013-06-13 23:33:00,
2013-06-13 19:40:00,56.8,51.4,29.68,WSW,239,0.0,0.0,82,0.00,,-RA,0.24,VWS V14.00,2013-06-13 23:40:00,
2013-06-13 19:47:00,56.8,51.4,29.68,WSW,239,0.0,0.0,82,0.00,,-RA,0.24,VWS V14.00,2013-06-13 23:47:00,
2013-06-13 19:54:00,56.7,51.2,29.68,WSW,239,0.0,0.0,82,0.00,,-RA,0.24,VWS V14.00,2013-06-13 23:54:00,
2013-06-13 20:00:00,56.7,51.6,29.68,WSW,239,0.0,0.0,83,0.00,,-RA,0.24,VWS V14.00,2013-06-14 00:00:00,
2013-06-13 20:05:00,56.5,51.4,29.68,WSW,239,0.0,0.0,83,0.00,,-RA,0.24,VWS V14.00,2013-06-14 00:05:00,
2013-06-13 20:12:00,56.3,51.2,29.68,WSW,239,0.0,0.0,83,0.00,,-RA,0.24,VWS V14.00,2013-06-14 00:12:00,
2013-06-13 20:19:00,56.3,51.5,29.68,WSW,239,0.0,0.0,84,0.00,,-RA,0.24,VWS V14.00,2013-06-14 00:19:00,
2013-06-13 20:26:00,56.1,51.4,29.68,WSW,239,0.0,0.0,84,0.00,,-RA,0.24,VWS V14.00,2013-06-14 00:26:00,
2013-06-13 20:33:00,56.1,51.7,29.68,WSW,239,0.0,0.0,85,0.00,,-RA,0.24,VWS V14.00,2013-06-14 00:33:00,
2013-06-13 20:40:00,56.1,51.7,29.68,WSW,239,0.0,0.0,85,0.00,,-RA,0.24,VWS V14.00,2013-06-14 00:40:00,
2013-06-13 20:45:00,55.9,51.5,29.68,WSW,239,0.0,0.0,85,0.00,,-RA,0.24,VWS V14.00,2013-06-14 00:45:00,
2013-06-13 20:52:00,55.9,51.5,29.68,WSW,239,0.0,0.0,85,0.00,,-RA,0.24,VWS V14.00,2013-06-14 00:52:00,
2013-06-13 20:59:00,55.9,51.8,29.68,WSW,239,0.0,0.0,86,0.00,,-RA,0.24,VWS V14.00,2013-06-14 00:59:00,
2013-06-13 21:06:00,55.8,51.6,29.68,WSW,239,0.0,0.0,86,0.00,,-RA,0.24,VWS V14.00,2013-06-14 01:06:00,
2013-06-13 21:13:00,55.8,51.6,29.68,WSW,239,0.0,0.0,86,0.04,,-RA,0.28,VWS V14.00,2013-06-14 01:13:00,
2013-06-13 21:20:00,55.6,51.5,29.68,WSW,239,0.0,0.0,86,0.04,,-RA,0.28,VWS V14.00,2013-06-14 01:20:00,
2013-06-13 21:25:00,55.6,51.5,29.68,NE,43,0.0,0.0,86,0.04,,-RA,0.28,VWS V14.00,2013-06-14 01:25:00,
2013-06-13 21:32:00,55.4,51.6,29.68,NE,43,0.0,0.0,87,0.04,,-RA,0.28,VWS V14.00,2013-06-14 01:32:00,
2013-06-13 21:39:00,55.4,51.6,29.68,NE,43,0.0,0.0,87,0.04,,-RA,0.28,VWS V14.00,2013-06-14 01:39:00,
2013-06-13 21:46:00,55.4,51.6,29.68,NE,43,0.0,0.0,87,0.04,,-RA,0.28,VWS V14.00,2013-06-14 01:46:00,
2013-06-13 21:53:00,55.4,51.6,29.68,NE,43,0.0,0.0,87,0.04,,-RA,0.28,VWS V14.00,2013-06-14 01:53:00,
2013-06-13 22:00:00,55.4,51.6,29.68,North,0,3.1,3.1,87,0.08,,-RA,0.31,VWS V14.00,2013-06-14 02:00:00,
2013-06-13 22:07:00,55.2,51.7,29.68,North,6,0.0,4.0,88,0.08,,-RA,0.31,VWS V14.00,2013-06-14 02:07:00,
2013-06-13 22:14:00,55.2,52.0,29.68,North,6,0.0,0.0,89,0.04,,-RA,0.31,VWS V14.00,2013-06-14 02:14:00,
2013-06-13 22:20:00,55.2,52.0,29.68,North,6,0.0,0.0,89,0.04,,-RA,0.31,VWS V14.00,2013-06-14 02:20:00,
2013-06-13 22:26:00,55.2,52.0,29.68,North,350,2.7,4.0,89,0.04,,-RA,0.31,VWS V14.00,2013-06-14 02:26:00,
2013-06-13 22:33:00,55.2,52.0,29.68,NW,325,0.0,3.6,89,0.04,,-RA,0.31,VWS V14.00,2013-06-14 02:33:00,
2013-06-13 22:40:00,55.2,52.0,29.68,North,10,2.2,3.6,89,0.08,,-RA,0.35,VWS V14.00,2013-06-14 02:40:00,
2013-06-13 22:47:00,55.2,52.3,29.68,North,357,4.9,5.4,90,0.08,,-RA,0.35,VWS V14.00,2013-06-14 02:47:00,
2013-06-13 22:54:00,55.2,52.3,29.65,North,357,2.7,5.4,90,0.08,,-RA,0.35,VWS V14.00,2013-06-14 02:54:00,
2013-06-13 23:00:00,55.2,52.3,29.65,NNW,343,3.1,5.8,90,0.12,,-RA,0.39,VWS V14.00,2013-06-14 03:00:00,
2013-06-13 23:06:00,55.0,52.2,29.65,NNE,21,2.7,5.4,90,0.08,,RA,0.39,VWS V14.00,2013-06-14 03:06:00,
2013-06-13 23:13:00,55.0,52.2,29.65,NNW,342,4.9,6.3,90,0.08,,RA,0.39,VWS V14.00,2013-06-14 03:13:00,
2013-06-13 23:20:00,55.0,52.5,29.65,North,0,4.9,6.3,91,0.12,,RA,0.43,VWS V14.00,2013-06-14 03:20:00,
2013-06-13 23:27:00,54.9,52.3,29.65,North,0,3.1,7.2,91,0.12,,RA,0.43,VWS V14.00,2013-06-14 03:27:00,
2013-06-13 23:34:00,54.7,52.1,29.65,North,350,2.7,5.8,91,0.12,,RA,0.43,VWS V14.00,2013-06-14 03:34:00,
2013-06-13 23:40:00,54.5,52.2,29.65,North,0,3.1,5.8,92,0.16,,RA,0.47,VWS V14.00,2013-06-14 03:40:00,
2013-06-13 23:45:00,54.5,52.2,29.65,NNE,14,3.6,6.3,92,0.12,,RA,0.47,VWS V14.00,2013-06-14 03:45:00,
2013-06-13 23:52:00,54.5,52.5,29.65,NNE,16,4.9,7.6,93,0.12,,RA,0.47,VWS V14.00,2013-06-14 03:52:00,
2013-06-13 23:59:00,54.5,52.5,29.65,North,353,5.8,8.3,93,0.12,,RA,0.47,VWS V14.00,2013-06-14 03:59:00,